Sheridan, WY

4:41 PM MST on December 15, 2017 (GMT -0700)
Sheridan County

Weather History for KSHR - September, 2012

Change the Weather History Date:

Thursday, September 6, 2012

  Actual Average Record
Temperature  
Mean Temperature 59 °F 62 °F  
Max Temperature 71 °F 79 °F 95 °F (1980)
Min Temperature 46 °F 45 °F 33 °F (1918)
Degree Days  
Heating Degree Days 6 5  
Month to date heating degree days 15 23  
Since 1 July heating degree days 34 85  
Cooling Degree Days 0 2  
Month to date cooling degree days 15 13  
Year to date cooling degree days 652 403  
Growing Degree Days 12 (Base 50)    
Moisture  
Dew Point 37 °F    
Average Humidity 48    
Maximum Humidity 66    
Minimum Humidity 29    
Precipitation  
Precipitation 0.00 in 0.04 in 0.73 in (1945)
Month to date precipitation T 0.22  
Year to date precipitation 6.99 10.27  
Sea Level Pressure  
Sea Level Pressure 30.02 in    
Wind  
Wind Speed 9 mph (NNW)    
Max Wind Speed 14 mph    
Max Gust Speed 16 mph    
Visibility 10 miles    
Events      
T = Trace of Precipitation, MM = Missing Value Source: NWS Daily Summary

Daily Weather History Graph

Daily Weather History Graph

Search for Another Location

Airport or City:

Trip Planner

Search our weather history database for the weather conditions in past years. The results will help you decide how hot, cold, wet, or windy it might be!

Date:

Astronomy

Sep. 06, 2012 Rise Set
Actual Time 6:36 AM MDT 7:34 PM MDT
Civil Twilight 6:06 AM MDT 8:04 PM MDT
Nautical Twilight 5:31 AM MDT 8:39 PM MDT
Astronomical Twilight 4:53 AM MDT 9:16 PM MDT
Moon 10:29 PM MDT (9/6) 12:56 PM MDT (9/6)
Length of Visible Light 13h 57m
Length of Day
12h 57m
Waning Gibbous, 67% of the Moon is Illuminated
Sep 6
Waning Gibbous
Sep 8
Last Quarter
Sep 15
New
Sep 22
First Quarter
Sep 29
Full

Hourly Weather History & Observations

Time (MDT) Temp. Dew Point Humidity Pressure Visibility Wind Dir Wind Speed Gust Speed Precip Events Conditions
12:53 AM 48.9 °F 37.0 °F 64% 29.88 in 10.0 mi Calm Calm - N/A   Clear
1:53 AM 48.9 °F 34.0 °F 56% 29.88 in 10.0 mi Calm Calm - N/A   Clear
2:53 AM 50.0 °F 34.0 °F 54% 29.87 in 10.0 mi NNW 3.5 mph - N/A   Clear
3:53 AM 59.0 °F 32.0 °F 36% 29.87 in 10.0 mi NW 15.0 mph 21.9 mph N/A   Clear
4:53 AM 57.0 °F 32.0 °F 39% 29.90 in 10.0 mi WNW 13.8 mph - N/A   Clear
5:53 AM 55.0 °F 33.1 °F 43% 29.94 in 10.0 mi NW 18.4 mph 26.5 mph N/A   Clear
6:53 AM 53.1 °F 33.1 °F 47% 29.99 in 10.0 mi West 17.3 mph 24.2 mph N/A   Clear
7:53 AM 55.0 °F 35.1 °F 47% 30.03 in 10.0 mi WNW 16.1 mph - N/A   Clear
8:53 AM 59.0 °F 37.0 °F 44% 30.06 in 10.0 mi WNW 13.8 mph - N/A   Clear
9:53 AM 64.0 °F 36.0 °F 35% 30.06 in 10.0 mi NNW 6.9 mph - N/A   Clear
10:53 AM 66.0 °F 37.0 °F 34% 30.06 in 10.0 mi Variable 6.9 mph - N/A   Clear
11:53 AM 68.0 °F 37.0 °F 32% 30.04 in 10.0 mi Variable 6.9 mph - N/A   Clear
12:53 PM 71.1 °F 37.9 °F 30% 30.04 in 10.0 mi North 10.4 mph 16.1 mph N/A   Clear
1:53 PM 70.0 °F 37.9 °F 31% 30.04 in 10.0 mi NNE 11.5 mph - N/A   Clear
2:53 PM 70.0 °F 37.9 °F 31% 30.02 in 10.0 mi North 8.1 mph - N/A   Clear
3:53 PM 70.0 °F 37.9 °F 31% 30.01 in 10.0 mi North 6.9 mph - N/A   Clear
4:53 PM 68.0 °F 39.0 °F 35% 30.05 in 10.0 mi North 6.9 mph - N/A   Clear
5:53 PM 66.9 °F 39.0 °F 36% 30.06 in 10.0 mi Calm Calm - N/A   Overcast
6:53 PM 64.9 °F 39.0 °F 39% 30.10 in 10.0 mi North 12.7 mph - N/A   Mostly Cloudy
7:53 PM 62.1 °F 39.9 °F 44% 30.12 in 10.0 mi NNE 5.8 mph - N/A   Overcast
8:53 PM 61.0 °F 41.0 °F 48% 30.14 in 10.0 mi WNW 3.5 mph - N/A   Overcast
9:53 PM 59.0 °F 43.0 °F 55% 30.16 in 10.0 mi NNW 10.4 mph - N/A   Overcast
11:53 PM - - N/A% 30.23 in - North - - 0.00 in   Unknown